Regional Weather Roundup
Issued by NWS

Home | Current Version | Previous Version | Text Only | Print | Product List | Glossary On
Versions: 1 2 3 4 5 6 7 8 9 10 11 12 13 14 15 16 17 18 19 20 21 22 23 24 25 26 27 28 29 30 31 32 33 34 35 36 37 38 39 40 41 42 43 44 45 46 47 48 49 50
000
ASUS46 KSTO 091415
RWRCA

NORTHERN AND CENTRAL CA REGIONAL WEATHER ROUNDUP
NATIONAL WEATHER SERVICE SACRAMENTO CA
600 AM PST FRI DEC 09 2016

NOTE: FAIR INDICATES FEW OR NO CLOUDS BELOW 12,000 FEET WITH NO
SIGNIFICANT WEATHER AND/OR OBSTRUCTIONS TO VISIBILITY.

CAZ001-003-091500-
NORTHWEST AREA

CITY           SKY/WX    TMP DP  RH WIND       PRES   REMARKS
CRESCENT CITY  CLOUDY    52  51  97 S10       30.12S
UKIAH          LGT RAIN  49  48  97 CALM      30.18R FOG
$$

CAZ006-505>513-091500-
BAY AREA

CITY           SKY/WX    TMP DP  RH WIND       PRES   REMARKS
SANTA ROSA     LGT RAIN  53  53 100 CALM      30.17R FOG
SAN RAFAEL     N/A       54  MM  MM MISG
NAPA           LGT RAIN  54  51  90 E5        30.20R FOG
CONCORD        CLOUDY    48  46  93 NW6       30.21S FOG
OAKLAND CITY   N/A       57  MM  MM MISG
OAKLAND        CLOUDY    58  57  97 E6        30.21R
SAN FRAN CITY  N/A       56  MM 100 MISG
SAN FRAN ARPT  CLOUDY    60  54  80 E7        30.20R
LIVERMORE      CLOUDY    55  53  93 CALM      30.20S
HAYWARD        CLOUDY    57  53  86 SE5       30.20S
REDWOOD CITY   N/A       54  MM  98 MISG
MOFFETT ARPT   CLOUDY    57  53  86 SE7       30.20F
SAN JOSE ARPT  CLOUDY    58  54  86 SE9       30.21S
$$
CAZ034-037-514>518-091500-
CENTRAL COAST

CITY           SKY/WX    TMP DP  RH WIND       PRES   REMARKS
WATSONVILLE    CLOUDY    55  55 100 CALM      30.24R
SALINAS        CLOUDY    55  53  93 S5        30.22R
MONTEREY       CLOUDY    55  55 100 CALM      30.23S FOG
SAN LUIS OBISP CLOUDY    59  57  93 CALM      30.24R
SANTA MARIA    CLOUDY    58  58 100 CALM      30.25R
$$
CAZ015-016-091500-
NORTHERN SACRAMENTO VALLEY

CITY           SKY/WX    TMP DP  RH WIND       PRES   REMARKS
REDDING        CLOUDY    43  43 100 CALM      30.19S FOG
RED BLUFF      CLOUDY    43  43 100 N5        30.21S FOG
OROVILLE       FOG       45  43  93 W5        30.23R VSB 1/2
$$
CAZ016>018-091500-
SOUTHERN SACRAMENTO VALLEY

CITY           SKY/WX    TMP DP  RH WIND       PRES   REMARKS
AUBURN         CLOUDY    54  54 100 S6        30.22S VSB 1/2
BEALE AFB      CLOUDY    46  46 100 W5        30.20R FOG
LINCOLN        CLOUDY    41  41 100 CALM      30.20S
MARYSVILLE     FOG       45  44  97 NW5       30.23R VSB 1/2
SAC INTL ARPT  FOG       44  44 100 CALM      30.21S VSB 1/4
MATHER AIRPORT CLOUDY    50  50 100 E6        30.21S FOG
DOWNTOWN SAC   N/A       47  MM  MM MISG
SAC EXEC ARPT  CLOUDY    47  47 100 CALM      30.21F FOG
VACAVILLE      CLOUDY    46  46 100 CALM      30.22S
TRAVIS AFB     CLOUDY    45  44  97 E2        30.20R
$$
CAZ019>021-091500-
SAN JOAQUIN VALLEY

CITY           SKY/WX    TMP DP  RH WIND       PRES   REMARKS
STOCKTON       CLOUDY    54  53  97 E5        30.21S
MODESTO        CLOUDY    55  52  89 SE3       30.22R FOG
MERCED         CLOUDY    53  51  93 SE3       30.22S
LEMOORE        MOCLDY    53  51  93 SE10      30.23R FOG
FRESNO         CLOUDY    53  51  93 CALM      30.24R
HANFORD        PTCLDY    51  51 100 SE5       30.24S FOG
PORTERVILLE    PTCLDY    55  54  96 CALM      30.24S
BAKERSFIELD    CLOUDY    57  54  89 CALM      30.24R
$$
CAZ011-012-071-091500-
NORTHERN MOUNTAINS

CITY           SKY/WX    TMP DP  RH WIND       PRES   REMARKS
YREKA          MOCLDY    40  36  86 S9        30.04F WCI  34
MOUNT SHASTA   CLOUDY    41  38  89 SE5       30.11S
ALTURAS        CLOUDY    37  35  92 SW5       30.10S WCI  33
$$
CAZ011-012-071-091500-
SIERRA NEVADA MTNS

CITY           SKY/WX    TMP DP  RH WIND       PRES   REMARKS
BLUE CANYON    LGT RAIN  42  40  92 S9        30.23S VSB 1/2
TAHOE VLY ARPT CLOUDY    43  37  79 S13G25    30.19R
MAMMOTH LAKES  FAIR      29  24  81 E3        30.24S
$$




USA.gov is the U.S. government's official web portal to all federal, state and local government web resources and services.